Starlink 32037

operational
NORAD ID: 60283 Int'l Des: 2024-132 Owner: SPXS Country: US Constellation: starlink
LEOCIRCULAR

About Starlink 32037

Description loading...

Live Position

Loading 3D Globe...

Upcoming Passes

Altitude History

Altitude vs Time

uPlot chart will show altitude changes over time

Two-Line Element Set

1 60283U 24132F 25353.18657662 -.00001458 00000-0 -37139-4 0 9997
2 60283 53.1601 66.4572 0000846 100.3761 259.7336 15.30183987 79234
Epoch: Dec 19, 2025 • Age: 16 hours

Current Status

Altitude 476.4 km
Velocity 7.63 km/s
Sub-Earth Point 28.04°N, 53.46°E
Launch Date Jul 28, 2024
Age 1.3 years
Type internet

Technical Details

Classification Payload
Mass 730.00 kg
Dry Mass 700.00 kg
Total Mass 730.00 kg
Length 0.30 m
Diameter 4.10 m
Span 29.00 m
Shape Box + pan
Manufacturer SPXS
Bus Type Starlink V2M
Phase Status In Orbit
Owner/State SPXS/US

Large Constellations

Loading constellations...